Temp
16 16 16 16 16 17 18 18 19 19 18 19 19 19 20 20 20 19 18 17 16 15 14 16 15 15 15 15 15 14 14 14
16 16 16 16 16 16 17 18 19 20 21 19 19 19 19 19 20 19 19 18 17 16 15 17 16 15 15 15 15 15 14 14
16 16 16 16 17 16 17 18 20 20 22 22 20 20 20 19 19 19 19 18 17 16 15 17 17 16 15 15 15 15 15 15
17 17 16 16 16 17 17 18 19 20 22 21 21 20 20 19 19 19 19 18 18 17 16 15 17 17 16 16 16 16 15 15
15 17 16 16 16 16 17 17 18 19 21 20 20 20 19 19 19 19 19 19 18 17 16 15 17 17 17 17 17 16 16 15
16 16 17 16 16 16 17 17 18 19 19 18 18 19 19 18 18 18 18 18 18 17 17 16 15 17 17 17 17 16 16 16
14 16 17 17 16 17 17 18 18 19 19 18 18 18 18 18 18 18 18 18 18 18 17 17 16 16 15 16 17 17 17 17
12 14 15 16 17 17 17 17 18 18 20 18 17 17 17 17 17 17 17 17 17 17 17 16 16 16 16 16 16 17 17 17
10 12 14 15 16 17 17 17 18 18 19 18 17 17 16 16 16 15 15 16 16 16 17 16 16 16 16 17 17 17 18 18
8 11 12 14 15 15 17 17 17 18 18 18 17 16 16 15 15 15 15 15 15 15 15 16 17 17 17 18 17 18 18 18
8 10 12 13 14 14 15 17 17 17 17 16 16 15 15 14 14 14 14 14 14 14 15 16 16 16 16 16 17 17 17 18
7 10 12 13 13 14 14 14 14 14 15 15 14 14 14 14 13 13 13 13 14 14 15 15 16 16 16 16 16 17 18 18
5 7 10 9 11 12 14 9 10 12 13 13 13 13 11 13 13 13 14 14 14 14 14 15 15 15 15 15 15 17 18 18
5 6 7 7 9 9 6 6 9 10 9 11 11 11 10 11 12 13 14 14 14 14 14 14 14 15 15 16 17 17 17 17
4 6 6 5 5 4 5 5 6 6 6 5 6 8 8 12 13 12 12 12 13 14 14 14 15 15 16 16 16 17 16 17
2 3 4 3 3 4 3 4 4 4 5 4 4 7 10 12 12 11 9 12 13 14 14 13 15 15 16 16 17 17 17 17
1 2 2 2 3 2 2 2 3 3 4 3 7 9 10 9 10 11 11 12 13 13 14 15 15 15 16 16 16 16 17 17
0 1 1 1 1 2 2 2 2 3 5 7 8 8 7 7 10 11 11 11 12 12 14 14 15 15 15 16 16 16 16 17
-2 -1 -0 -1 -0 0 1 1 2 3 4 6 7 7 8 8 10 11 11 12 11 12 13 14 14 15 15 15 16 16 16 16
Height
3057 3065 3070 3073 3071 3083 3085 3085 3085 3085 3090 3094 3096 3097 3102 3107 3112 3117 3123 3129 3130 3135 3139 3143 3147 3150 3153 3158 3164 3168 3173 3177
3050 3059 3062 3062 3075 3079 3079 3077 3075 3073 3074 3077 3084 3090 3095 3101 3107 3112 3117 3124 3127 3131 3135 3138 3144 3147 3151 3154 3159 3165 3170 3174
3043 3041 3048 3058 3062 3070 3076 3075 3070 3068 3064 3064 3070 3078 3087 3095 3102 3107 3113 3117 3122 3126 3131 3135 3140 3144 3147 3151 3155 3160 3165 3170
3027 3035 3046 3051 3055 3060 3063 3068 3068 3064 3062 3061 3063 3072 3081 3088 3095 3103 3110 3114 3118 3122 3128 3132 3135 3140 3143 3147 3151 3156 3161 3165
3023 3027 3031 3037 3047 3055 3062 3067 3064 3065 3064 3065 3067 3073 3079 3085 3091 3099 3106 3112 3115 3118 3124 3127 3130 3135 3138 3143 3147 3152 3157 3161
3009 3014 3023 3033 3042 3049 3054 3057 3062 3062 3066 3066 3069 3073 3078 3082 3088 3094 3102 3108 3111 3116 3119 3125 3128 3131 3134 3138 3143 3147 3152 3157
3012 3017 3019 3027 3035 3040 3044 3052 3056 3059 3063 3065 3068 3073 3078 3083 3087 3094 3099 3104 3109 3113 3115 3119 3123 3127 3131 3135 3138 3142 3147 3151
3008 3011 3017 3020 3025 3033 3040 3047 3054 3055 3060 3061 3067 3072 3077 3080 3084 3087 3091 3098 3102 3108 3112 3116 3121 3124 3128 3131 3134 3137 3141 3146
3007 3014 3015 3016 3016 3025 3035 3043 3049 3052 3057 3058 3064 3069 3075 3080 3084 3086 3090 3095 3099 3103 3108 3112 3116 3120 3123 3128 3132 3134 3137 3141
3011 3013 3013 3014 3018 3022 3030 3038 3046 3052 3055 3064 3066 3070 3073 3077 3082 3087 3090 3094 3097 3100 3103 3106 3111 3115 3119 3122 3126 3130 3132 3136
3011 3011 3013 3014 3016 3021 3026 3033 3043 3050 3053 3055 3060 3065 3070 3074 3079 3084 3088 3091 3094 3097 3101 3105 3108 3111 3113 3116 3119 3124 3127 3130
3014 3011 3010 3015 3017 3019 3025 3030 3033 3040 3046 3050 3057 3064 3067 3066 3069 3074 3078 3081 3084 3087 3092 3099 3103 3106 3108 3108 3110 3115 3121 3124
3019 3015 3010 3010 3012 3015 3022 3034 3029 3035 3044 3049 3053 3054 3054 3059 3063 3068 3073 3076 3079 3082 3086 3088 3091 3094 3097 3102 3104 3108 3114 3117
3018 3018 3020 3015 3014 3017 3023 3023 3025 3029 3033 3038 3043 3046 3048 3051 3057 3064 3069 3071 3075 3077 3080 3082 3084 3088 3092 3095 3100 3101 3103 3107
3018 3015 3017 3022 3026 3024 3024 3024 3025 3027 3030 3034 3038 3040 3043 3049 3056 3060 3064 3066 3066 3070 3073 3074 3076 3080 3083 3088 3091 3094 3096 3099
3015 3010 3013 3019 3022 3023 3023 3023 3024 3026 3029 3032 3034 3036 3042 3046 3052 3053 3057 3057 3062 3064 3066 3066 3070 3075 3078 3080 3084 3087 3089 3092
3009 3010 3010 3014 3017 3018 3018 3019 3021 3022 3025 3027 3030 3037 3041 3044 3047 3048 3050 3054 3057 3058 3059 3061 3065 3069 3072 3075 3078 3080 3082 3085
3005 3007 3006 3006 3011 3014 3013 3017 3018 3020 3022 3027 3032 3034 3036 3037 3039 3043 3046 3048 3050 3051 3052 3055 3059 3063 3065 3068 3071 3073 3075 3077
2993 2995 2994 2996 3000 3005 3007 3009 3015 3018 3021 3024 3027 3029 3033 3033 3035 3037 3039 3042 3044 3045 3047 3050 3052 3054 3058 3062 3064 3066 3067 3071
Wind_Speed
43 36 40 38 46 39 30 28 23 32 40 32 35 35 30 26 31 32 32 33 32 32 33 24 27 20 14 20 26 30 30 28
40 34 38 41 38 35 36 20 19 26 34 39 35 41 37 28 28 31 35 35 32 33 32 22 21 23 17 15 22 24 26 26
39 51 44 42 39 40 33 31 14 13 21 26 39 40 39 39 35 31 35 37 33 31 34 22 22 26 22 18 17 22 25 24
38 41 42 42 46 40 30 32 32 26 5 0 20 34 32 30 38 30 35 35 32 30 33 34 24 26 26 24 21 18 19 20
38 37 45 49 42 41 37 32 32 20 11 7 17 21 24 26 33 37 29 34 31 29 30 34 25 23 25 25 23 24 24 23
27 35 38 44 43 42 39 38 29 32 10 12 10 9 16 19 26 26 36 31 32 28 32 32 31 25 25 25 29 29 27 27
45 34 30 39 42 43 48 38 38 29 27 18 15 18 17 19 22 24 29 31 32 27 33 31 28 26 27 26 28 31 31 28
25 34 26 24 42 42 42 41 34 32 25 19 20 21 18 20 20 23 21 21 24 30 27 29 33 27 26 23 23 27 27 25
24 23 26 26 25 40 41 40 35 35 26 26 23 25 24 17 13 10 14 17 16 20 32 33 31 32 32 25 21 22 21 20
18 17 19 23 24 18 35 36 36 29 29 18 20 24 21 17 14 10 11 11 11 13 18 28 36 36 36 34 31 29 27 25
8 13 15 17 20 25 14 28 34 32 25 18 15 16 15 12 14 14 14 16 16 16 19 18 19 20 18 22 29 31 32 29
8 7 12 13 15 14 24 17 4 10 15 16 12 10 11 18 21 22 19 22 21 21 23 23 25 28 27 27 35 37 36 34
12 8 3 10 8 17 21 6 10 11 14 14 13 17 19 26 25 27 26 24 26 25 27 31 31 34 42 37 35 35 31 31
19 14 3 1 5 10 10 10 17 18 14 17 21 17 13 23 24 23 23 24 28 30 29 31 34 36 40 39 38 37 34 33
25 25 5 5 8 2 1 4 9 13 13 7 2 12 14 26 26 22 18 20 27 32 34 33 33 30 31 31 34 35 34 33
14 26 18 12 14 5 5 7 6 6 7 3 1 9 31 36 29 17 8 25 19 19 26 35 33 30 30 30 33 35 35 31
16 19 20 16 16 16 14 12 8 15 12 10 17 18 23 18 15 19 18 18 14 16 18 27 31 31 31 28 27 34 36 33
23 20 20 21 19 21 25 22 20 19 22 22 25 24 17 16 16 13 10 11 13 15 22 22 24 30 31 29 28 27 33 33
30 32 32 29 26 16 18 20 28 27 28 31 30 26 23 23 20 18 12 14 18 20 21 22 20 24 29 28 28 26 31 33
Wind_Direction
214 214 209 204 214 212 222 223 224 221 227 239 230 234 228 218 207 204 204 203 206 221 224 212 212 221 224 218 213 216 215 212
213 211 216 216 210 214 225 240 226 226 222 215 221 220 223 215 215 206 203 205 209 218 226 211 210 215 213 212 212 217 218 216
215 207 210 208 211 212 220 229 239 248 231 219 211 205 213 215 214 209 205 203 204 212 224 205 207 208 207 201 195 207 216 214
228 216 212 212 211 205 218 217 239 262 312 68 197 196 201 209 207 204 202 203 202 210 218 223 217 212 207 199 196 198 199 204
238 215 200 210 210 215 213 222 222 241 233 150 116 178 192 203 204 204 204 206 201 205 211 217 219 209 210 210 208 204 207 208
224 218 205 199 212 210 215 212 225 221 179 152 150 161 179 186 197 199 205 201 206 204 216 213 224 221 217 216 216 218 218 219
226 221 214 203 209 209 211 215 216 214 212 157 162 164 158 169 186 191 191 205 201 203 213 220 223 232 233 232 228 224 225 225
235 231 240 239 204 210 211 214 211 227 213 180 150 150 162 173 168 169 170 180 186 190 186 191 211 222 241 238 234 233 232 232
239 233 235 238 215 203 211 208 211 216 220 166 165 161 165 167 169 181 182 182 184 205 212 200 197 211 228 227 225 225 224 225
254 243 242 226 218 216 211 210 209 212 217 172 171 168 167 175 177 187 201 213 216 223 221 220 226 225 232 237 230 229 231 238
254 232 223 214 217 212 215 201 210 206 215 201 173 172 175 174 187 205 214 216 223 220 209 221 233 221 233 235 236 232 238 241
288 270 217 213 222 207 206 215 231 190 187 196 191 184 194 215 215 217 214 212 214 209 206 208 220 213 224 226 238 234 237 242
237 258 320 82 78 179 195 197 189 190 193 200 194 184 203 211 216 223 224 223 214 213 209 208 218 217 219 220 232 248 247 244
226 233 210 356 214 131 113 145 156 154 166 183 195 204 214 209 211 220 230 237 231 224 223 224 223 229 234 236 236 241 245 245
223 219 177 223 68 323 41 106 144 146 155 91 121 208 213 213 216 234 248 244 245 237 232 235 232 224 226 234 236 237 241 251
247 237 253 260 245 270 300 275 246 246 171 345 224 194 208 218 230 226 229 241 244 246 236 240 237 228 228 230 231 233 238 247
274 259 265 251 248 269 273 278 275 267 239 274 218 213 219 227 223 224 239 249 259 255 253 248 243 240 242 244 246 238 238 241
266 256 258 254 258 265 271 270 266 257 245 227 222 218 222 245 227 221 232 269 279 272 260 256 251 247 247 247 247 248 240 243
253 247 237 247 242 237 251 251 251 249 254 239 237 240 247 259 248 246 256 272 273 272 272 262 252 242 246 246 247 254 246 243